Location: Gaast
(52.9002°N, 5.8891°E)
Time: 01:46:08
(UTC+00:00)

Resurs 01 Rocket - Pass Details

Date: 18 November 2025
Orbit: 626 x 637 km, 97.7° (Epoch: 15 December)

Event Time Altitude Azimuth Distance (km) Brightness Sun altitude
Exits shadow 19:07:45 27° 321° (NW) 1,222 3.4 -31.3°
Drops below altitude 10° 19:09:59 10° 336° (NNW) 2,037 4.5 -31.6°
Sets 19:12:16 0° 342° (NNW) 2,950 5.4 -31.9°
